{"data":{"norad_id":53206,"intl_designator":"2022-084T","name":"STARLINK-4408","alt_names":[],"object_type":"PAYLOAD","status":"ACTIVE","operator":null,"country":"US","launch_date":"2022-07-22","launch_site_code":"AFWTR","launch_vehicle":null,"mission":null,"orbit_class":"UNKNOWN","rcs_meters":null,"size_class":null,"mass_kg":null,"dimensions":null,"purposes":["comms"],"wikipedia_slug":null,"has_3d_model":false,"image_url":null,"decayed_at":null,"tle_current":{"epoch":"2026-09-20T02:38:06.376128Z","epoch_age_seconds":105968,"freshness":"FRESH","line1":"1 53206U 22084T   26263.10979602  .00822481  33218-3  14271-2 0  9997","line2":"2 53206  97.2726 322.9564 0001683  49.5703 310.5723 16.02335796228968","mean_motion":16.02335796,"eccentricity":0.0001683,"inclination_deg":97.2726,"raan_deg":322.9564,"arg_perigee_deg":49.5703,"mean_anomaly_deg":310.5723,"bstar":0.0014271,"rev_number":22896,"period_min":89.868803005884,"perigee_km":266.83344232432,"apogee_km":269.07051587468,"semimajor_km":6646.0889790995,"source":"CELESTRAK","updated_at":"2026-09-20T09:00:40.192013Z"}}}